DAL129 KFLL-KATL

Flight info

Callsign DAL129
Flight time N/A
Altitude 36000
Route FRSBE2 STYMY Q77 MJAMS/N0440F350 Q77 SHRKS/N0439F360 LAIRI LARZZ JJEDI4
Aircraft B752/M-SDE2E3FGHIJ3J4J7RWXY/LB1

Departure

Time 2026-05-03 20:59
Airport Fort Lauderdale Hollywood International Airport (KFLL)

Arrival

Time N/A
Airport Hartsfield Jackson Atlanta International Airport (KATL)
Time Latitude Longitude Altitude Speed Heading
2026-05-03 20:15 26.07303 -80.14748 14 ft 0 kts 70°
2026-05-03 20:21 26.07298 -80.14764 14 ft 2 kts 70°
2026-05-03 20:22 26.07293 -80.14779 14 ft 2 kts 70°
2026-05-03 20:22 26.07287 -80.14795 14 ft 2 kts 70°
2026-05-03 20:22 26.07282 -80.14810 14 ft 2 kts 70°
2026-05-03 20:22 26.07279 -80.14826 14 ft 2 kts 98°
2026-05-03 20:23 26.07284 -80.14842 14 ft 2 kts 128°
2026-05-03 20:23 26.07295 -80.14852 14 ft 2 kts 158°
2026-05-03 20:23 26.07305 -80.14854 14 ft 0 kts 178°
2026-05-03 20:23 26.07311 -80.14854 14 ft 0 kts 180°
2026-05-03 20:25 26.07303 -80.14854 14 ft 0 kts 180°
2026-05-03 20:26 26.07297 -80.14854 14 ft 0 kts 180°
2026-05-03 20:28 26.07246 -80.14855 14 ft 16 kts 181°
2026-05-03 20:29 26.07145 -80.14867 14 ft 7 kts 220°
2026-05-03 20:29 26.07142 -80.14915 14 ft 7 kts 304°
2026-05-03 20:29 26.07171 -80.14980 14 ft 6 kts 265°
2026-05-03 20:29 26.07129 -80.15040 14 ft 16 kts 226°
2026-05-03 20:30 26.07076 -80.15112 14 ft 9 kts 279°
2026-05-03 20:30 26.07136 -80.15128 14 ft 13 kts
2026-05-03 20:30 26.07251 -80.15127 14 ft 18 kts
2026-05-03 20:30 26.07383 -80.15126 14 ft 19 kts
2026-05-03 20:31 26.07492 -80.15173 14 ft 16 kts 274°
2026-05-03 20:31 26.07493 -80.15308 14 ft 18 kts 269°
2026-05-03 20:31 26.07492 -80.15455 14 ft 20 kts 270°
2026-05-03 20:31 26.07494 -80.15619 14 ft 22 kts 270°
2026-05-03 20:32 26.07494 -80.15797 14 ft 23 kts 270°
2026-05-03 20:32 26.07495 -80.15944 14 ft 19 kts 270°
2026-05-03 20:32 26.07495 -80.16086 14 ft 17 kts 270°
2026-05-03 20:32 26.07496 -80.16201 14 ft 10 kts 271°
2026-05-03 20:33 26.07496 -80.16290 14 ft 12 kts 270°
2026-05-03 20:33 26.07497 -80.16316 14 ft 0 kts 272°
2026-05-03 20:34 26.07497 -80.16317 14 ft 3 kts 271°
2026-05-03 20:34 26.07497 -80.16357 14 ft 7 kts 270°
2026-05-03 20:34 26.07497 -80.16398 14 ft 0 kts 270°
2026-05-03 20:41 26.07497 -80.16402 14 ft 0 kts 270°
2026-05-03 20:41 26.07497 -80.16412 14 ft 1 kts 270°
2026-05-03 20:42 26.07497 -80.16431 14 ft 4 kts 270°
2026-05-03 20:42 26.07498 -80.16479 14 ft 0 kts 271°
2026-05-03 20:45 26.07498 -80.16486 14 ft 2 kts 271°
2026-05-03 20:46 26.07498 -80.16519 14 ft 6 kts 271°
2026-05-03 20:46 26.07498 -80.16582 14 ft 9 kts 269°
2026-05-03 20:46 26.07498 -80.16597 14 ft 0 kts 271°
2026-05-03 20:47 26.07499 -80.16612 14 ft 0 kts 277°
2026-05-03 20:49 26.07500 -80.16616 14 ft 1 kts 288°
2026-05-03 20:49 26.07514 -80.16635 14 ft 4 kts 328°
2026-05-03 20:49 26.07541 -80.16643 14 ft 0 kts 358°
2026-05-03 20:52 26.07546 -80.16643 14 ft 5 kts 359°
2026-05-03 20:52 26.07573 -80.16643 14 ft 5 kts
2026-05-03 20:53 26.07600 -80.16643 14 ft 0 kts
2026-05-03 20:58 26.07602 -80.16643 14 ft 2 kts
2026-05-03 20:58 26.07658 -80.16642 14 ft 12 kts
2026-05-03 20:58 26.07693 -80.16608 14 ft 0 kts 87°
2026-05-03 20:59 26.07694 -80.16495 14 ft 54 kts 90°
2026-05-03 20:59 26.07682 -80.15622 121 ft 159 kts 90°
2026-05-03 20:59 26.07658 -80.14384 1456 ft 166 kts 89°
2026-05-03 20:59 26.07659 -80.13148 2194 ft 172 kts 88°
2026-05-03 21:00 26.07678 -80.11748 2693 ft 191 kts 89°
2026-05-03 21:00 26.07692 -80.10744 3042 ft 204 kts 85°
2026-05-03 21:00 26.08311 -80.08637 3755 ft 230 kts 63°
2026-05-03 21:00 26.09321 -80.07203 3955 ft 239 kts 34°
2026-05-03 21:01 26.10814 -80.06425 3985 ft 244 kts 17°
2026-05-03 21:01 26.12536 -80.05751 3982 ft 271 kts 19°
2026-05-03 21:01 26.14323 -80.05061 3962 ft 268 kts 11°
2026-05-03 21:01 26.16160 -80.05051 3980 ft 265 kts 346°
2026-05-03 21:02 26.17921 -80.05648 3981 ft 267 kts 341°
2026-05-03 21:02 26.19710 -80.06293 3978 ft 266 kts 341°
2026-05-03 21:02 26.21409 -80.07069 3977 ft 263 kts 325°
2026-05-03 21:02 26.22644 -80.08533 3990 ft 263 kts 298°
2026-05-03 21:03 26.23393 -80.10384 3990 ft 264 kts 292°
2026-05-03 21:03 26.24104 -80.12260 3979 ft 260 kts 292°
2026-05-03 21:03 26.24797 -80.14130 3981 ft 260 kts 292°
2026-05-03 21:03 26.25531 -80.15977 3982 ft 263 kts 299°
2026-05-03 21:04 26.26505 -80.17711 3984 ft 263 kts 302°
2026-05-03 21:04 26.27487 -80.19434 3979 ft 262 kts 302°
2026-05-03 21:04 26.28459 -80.21148 4222 ft 268 kts 302°